Regional Weather Roundup
Issued by NWS Bismarck, ND

Home | Current Version | Previous Version | Text Only | Print | Product List | Glossary On
Versions: 1 2 3 4 5 6 7 8 9 10 11 12 13 14 15 16 17 18 19 20 21 22 23 24 25 26 27 28 29 30 31 32 33 34 35 36 37 38 39 40 41 42 43 44 45 46 47 48 49 50
414
ASUS43 KBIS 220010
RWRBIS

NWR BROADCAST TEXT
NATIONAL WEATHER SERVICE BISMARCK ND
600 PM CST TUE FEB 21 2017

NOTE: "FAIR" INDICATES FEW OR NO CLOUDS BELOW 12,000 FEET WITH NO
SIGNIFICANT WEATHER AND/OR OBSTRUCTIONS TO VISIBILITY.


CITY           SKY/WX    TMP DP  RH WIND       PRES   REMARKS
WILLISTON      LGT RAIN  42  32  67 W16G24    29.67R
MINOT          CLOUDY    44  36  73 NW6       29.63S
MINOT AFB      FAIR      37  34  88 CALM      29.63R
BISMARCK       FAIR      46  37  71 NE6       29.65S
DICKINSON      MOCLDY    46  33  60 NE7       29.63R
GARRISON         N/A     42  37  82 W8        29.64S
HETTINGER ARPT MOCLDY    51  36  56 NE13      29.61F
JAMESTOWN      CLOUDY    41  37  86 N3        29.65S
CARRINGTON     CLOUDY    37  36  93 W7        29.67S
HAZEN          CLOUDY   N/A N/A N/A NW5       29.67R
MANDAN         MOCLDY    48  36  61 SE3       29.67R
RUGBY            N/A     32  32 100 N6        29.66R
STANLEY        CLOUDY    39  39 100 CALM      29.65R
TIOGA          CLOUDY    37  37 100 W5        29.66R
WATFORD CITY   LGT RAIN  37  37 100 CALM      29.65S
$$

CITY           SKY/WX    TMP DP  RH WIND       PRES   REMARKS
GRAND FORKS    FOG       35  31  85 NW5       29.68R VSB 1/4
GRAND FORKS AF FOG       32  32 100 CALM      29.67S VSB 1/4
DEVILS LAKE    LGT RAIN  37  33  85 S5        29.66S
FARGO          CLOUDY    44  40  85 SW3       29.67R
CAVALIER       FOG       32  32 100 N6        29.68S VSB<1/4
GRAFTON        FOG       30  30 100 NW5       29.71R VSB<1/4
GWINNER        FAIR      50  43  76 W5        29.67S
ROLLA          FAIR      32  32 100 S7        29.65S
$$

CITY           SKY/WX    TMP DP  RH WIND       PRES   REMARKS
ABERDEEN       FAIR      54  40  59 SE5       29.65F
MOBRIDGE       FAIR      56  38  50 E12       29.59F
BUFFALO          N/A     63  23  21 W37G44    29.55S
RAPID CITY     FAIR      66  26  22 W29G37    29.66S
GLASGOW        CLOUDY    40  37  89 NW12      29.66F
SIDNEY         LGT RAIN  43  38  82 NW14      29.67R
WOLF POINT     LGT RAIN  41  36  82 NW5       29.68R
GLENDIVE       FAIR      46  40  79 SE7       29.63F
MILES CITY     LGT RAIN  50  40  68 NE5       29.61F
BAKER          LGT RAIN  46  38  73 NW28G60   29.69R
$$

CITY           SKY/WX    TMP DP  RH WIND       PRES   REMARKS
BILLINGS       FAIR      54  22  28 W22       29.63R
GREAT FALLS    FAIR      40  36  86 CALM      29.63S
REGINA         CLOUDY    34  30  86 N8        29.71R
ESTEVAN        FOG       30  30 100 NE8       29.66R VSB 1/4
$$





USA.gov is the U.S. government's official web portal to all federal, state and local government web resources and services.